Time,TemperatureF,DewpointF,PressureIn,WindDirection,WindDirectionDegrees,WindSpeedMPH,WindSpeedGustMPH,Humidity,HourlyPrecipIn,Conditions,Clouds,dailyrainin,SoftwareType,DateUTC
2013-01-20 00:04:00,34.0,29.0,29.89,East,93,0.0,1.0,83,0.00,,,0.14,,2013-01-20 05:04:00,
2013-01-20 00:12:00,34.0,29.0,29.89,East,93,0.0,1.0,83,0.00,,,0.14,,2013-01-20 05:12:00,
2013-01-20 00:23:00,35.0,30.0,29.87,East,89,0.0,1.0,82,0.00,,,0.14,,2013-01-20 05:23:00,
2013-01-20 00:33:00,35.0,30.0,29.87,NNE,32,0.0,0.0,82,0.00,,,0.14,,2013-01-20 05:33:00,
2013-01-20 00:43:00,35.0,30.0,29.87,NNE,32,0.0,0.0,82,0.00,,,0.14,,2013-01-20 05:43:00,
2013-01-20 00:53:00,35.0,30.0,29.86,East,96,0.0,1.0,82,0.00,,,0.14,,2013-01-20 05:53:00,
2013-01-20 01:02:00,38.0,32.0,29.85,SE,145,0.0,3.0,79,0.00,,,0.14,,2013-01-20 06:02:00,
2013-01-20 01:12:00,38.0,32.0,29.85,SE,145,0.0,3.0,79,0.00,,,0.14,,2013-01-20 06:12:00,
2013-01-20 01:22:00,39.0,32.0,29.84,NNW,328,1.0,5.0,75,0.00,,,0.14,,2013-01-20 06:22:00,
2013-01-20 01:33:00,39.0,32.0,29.84,ESE,107,0.0,4.0,75,0.00,,,0.14,,2013-01-20 06:33:00,
2013-01-20 01:43:00,39.0,32.0,29.84,ESE,107,0.0,4.0,75,0.00,,,0.14,,2013-01-20 06:43:00,
2013-01-20 01:53:00,40.0,32.0,29.83,WSW,243,0.0,3.0,74,0.00,,,0.14,,2013-01-20 06:53:00,
2013-01-20 02:02:00,40.0,32.0,29.83,SE,134,2.0,6.0,73,0.00,,,0.14,,2013-01-20 07:02:00,
2013-01-20 02:12:00,40.0,32.0,29.83,SE,134,2.0,6.0,73,0.00,,,0.14,,2013-01-20 07:12:00,
2013-01-20 02:22:00,40.0,32.0,29.83,SE,138,0.0,5.0,73,0.00,,,0.14,,2013-01-20 07:22:00,
2013-01-20 02:32:00,40.0,32.0,29.82,ESE,113,1.0,4.0,73,0.01,,,0.15,,2013-01-20 07:32:00,
2013-01-20 02:42:00,40.0,32.0,29.82,ESE,113,1.0,4.0,73,0.01,,,0.15,,2013-01-20 07:42:00,
2013-01-20 02:52:00,40.0,32.0,29.81,ESE,103,0.0,2.0,73,0.01,,,0.15,,2013-01-20 07:52:00,
2013-01-20 03:02:00,40.0,32.0,29.80,ENE,75,0.0,2.0,73,0.01,,,0.15,,2013-01-20 08:02:00,
2013-01-20 03:12:00,40.0,32.0,29.80,ENE,75,0.0,2.0,73,0.01,,,0.15,,2013-01-20 08:12:00,
2013-01-20 03:22:00,39.0,31.0,29.78,South,169,1.0,3.0,74,0.01,,,0.15,,2013-01-20 08:22:00,
2013-01-20 03:32:00,39.0,31.0,29.78,SE,127,1.0,3.0,74,0.00,,,0.15,,2013-01-20 08:32:00,
2013-01-20 03:42:00,39.0,31.0,29.78,SE,127,1.0,3.0,74,0.00,,,0.15,,2013-01-20 08:42:00,
2013-01-20 03:53:00,39.0,31.0,29.77,ESE,113,0.0,5.0,74,0.00,,,0.15,,2013-01-20 08:53:00,
2013-01-20 04:02:00,39.0,31.0,29.76,WSW,245,0.0,2.0,74,0.00,,,0.15,,2013-01-20 09:02:00,
2013-01-20 04:12:00,39.0,31.0,29.76,WSW,245,0.0,2.0,74,0.00,,,0.15,,2013-01-20 09:12:00,
2013-01-20 04:22:00,39.0,32.0,29.75,ESE,104,1.0,4.0,75,0.01,,,0.16,,2013-01-20 09:22:00,
2013-01-20 04:33:00,38.0,31.0,29.75,NW,307,0.0,3.0,75,0.01,,,0.16,,2013-01-20 09:33:00,
2013-01-20 04:42:00,38.0,31.0,29.75,NW,307,0.0,3.0,75,0.01,,,0.16,,2013-01-20 09:42:00,
2013-01-20 04:53:00,38.0,31.0,29.74,ESE,115,0.0,2.0,76,0.01,,,0.16,,2013-01-20 09:53:00,
2013-01-20 05:02:00,38.0,31.0,29.73,ESE,110,0.0,2.0,76,0.01,,,0.16,,2013-01-20 10:02:00,
2013-01-20 05:12:00,38.0,31.0,29.73,ESE,110,0.0,2.0,76,0.01,,,0.16,,2013-01-20 10:12:00,
2013-01-20 05:23:00,38.0,31.0,29.72,ESE,114,1.0,4.0,76,0.00,,,0.16,,2013-01-20 10:23:00,
2013-01-20 05:32:00,37.0,30.0,29.71,South,184,0.0,2.0,77,0.00,,,0.16,,2013-01-20 10:32:00,
2013-01-20 05:42:00,37.0,30.0,29.71,South,184,0.0,2.0,77,0.00,,,0.16,,2013-01-20 10:42:00,
2013-01-20 05:53:00,37.0,30.0,29.69,ESE,121,1.0,3.0,77,0.00,,,0.16,,2013-01-20 10:53:00,
2013-01-20 06:02:00,37.0,30.0,29.68,ESE,107,0.0,2.0,77,0.00,,,0.16,,2013-01-20 11:02:00,
2013-01-20 06:12:00,37.0,30.0,29.68,ESE,107,0.0,2.0,77,0.00,,,0.16,,2013-01-20 11:12:00,
2013-01-20 06:22:00,37.0,31.0,29.67,WSW,249,1.0,4.0,78,0.00,,,0.16,,2013-01-20 11:22:00,
2013-01-20 06:33:00,37.0,31.0,29.66,SSW,204,1.0,4.0,78,0.00,,,0.16,,2013-01-20 11:33:00,
2013-01-20 06:43:00,37.0,31.0,29.66,SSW,204,1.0,4.0,78,0.00,,,0.16,,2013-01-20 11:43:00,
2013-01-20 06:54:00,37.0,30.0,29.65,WSW,256,1.0,4.0,77,0.00,,,0.16,,2013-01-20 11:54:00,
2013-01-20 07:03:00,37.0,30.0,29.65,West,281,2.0,5.0,77,0.00,,,0.16,,2013-01-20 12:03:00,
2013-01-20 07:12:00,37.0,30.0,29.65,West,281,2.0,5.0,77,0.00,,,0.16,,2013-01-20 12:12:00,
2013-01-20 07:23:00,37.0,30.0,29.64,ESE,119,0.0,6.0,77,0.00,,,0.16,,2013-01-20 12:23:00,
2013-01-20 07:33:00,38.0,31.0,29.64,ESE,122,1.0,6.0,76,0.00,,,0.16,,2013-01-20 12:33:00,
2013-01-20 07:43:00,38.0,31.0,29.64,ESE,122,1.0,6.0,76,0.00,,,0.16,,2013-01-20 12:43:00,
2013-01-20 07:53:00,37.0,30.0,29.63,SE,136,0.0,5.0,76,0.00,,,0.16,,2013-01-20 12:53:00,
2013-01-20 08:03:00,37.0,30.0,29.61,SSW,192,0.0,4.0,76,0.00,,,0.16,,2013-01-20 13:03:00,
2013-01-20 08:12:00,37.0,30.0,29.61,SSW,192,0.0,4.0,76,0.00,,,0.16,,2013-01-20 13:12:00,
2013-01-20 08:23:00,38.0,31.0,29.62,SE,142,1.0,6.0,75,0.00,,,0.16,,2013-01-20 13:23:00,
2013-01-20 08:33:00,38.0,30.0,29.62,SSE,161,3.0,6.0,74,0.00,,,0.16,,2013-01-20 13:33:00,
2013-01-20 08:43:00,38.0,30.0,29.62,SSE,161,3.0,6.0,74,0.00,,,0.16,,2013-01-20 13:43:00,
2013-01-20 08:53:00,40.0,31.0,29.61,SW,214,2.0,5.0,71,0.00,,,0.16,,2013-01-20 13:53:00,
2013-01-20 09:02:00,40.0,31.0,29.61,ENE,71,2.0,5.0,70,0.00,,,0.16,,2013-01-20 14:02:00,
2013-01-20 09:12:00,40.0,31.0,29.61,ENE,71,2.0,5.0,70,0.00,,,0.16,,2013-01-20 14:12:00,
2013-01-20 09:23:00,41.0,31.0,29.61,SSE,167,3.0,11.0,66,0.00,,,0.16,,2013-01-20 14:23:00,
2013-01-20 09:33:00,42.0,31.0,29.61,SSW,195,2.0,10.0,65,0.00,,,0.16,,2013-01-20 14:33:00,
2013-01-20 09:43:00,42.0,31.0,29.61,SSW,195,2.0,10.0,65,0.00,,,0.16,,2013-01-20 14:43:00,
2013-01-20 09:53:00,44.0,31.0,29.61,SSW,200,2.0,10.0,60,0.00,,,0.16,,2013-01-20 14:53:00,
2013-01-20 10:03:00,45.0,32.0,29.60,SSE,160,4.0,10.0,59,0.00,,,0.16,,2013-01-20 15:03:00,
2013-01-20 10:12:00,45.0,32.0,29.60,SSE,160,4.0,10.0,59,0.00,,,0.16,,2013-01-20 15:12:00,
2013-01-20 10:23:00,46.0,31.0,29.59,ESE,114,2.0,6.0,56,0.01,,,0.17,,2013-01-20 15:23:00,
2013-01-20 10:33:00,46.0,30.0,29.59,ESE,121,3.0,12.0,54,0.01,,,0.17,,2013-01-20 15:33:00,
2013-01-20 10:43:00,46.0,30.0,29.59,ESE,121,3.0,12.0,54,0.01,,,0.17,,2013-01-20 15:43:00,
2013-01-20 10:53:00,47.0,30.0,29.57,West,269,4.0,11.0,52,0.02,,,0.18,,2013-01-20 15:53:00,
2013-01-20 11:03:00,48.0,31.0,29.57,WSW,253,4.0,15.0,51,0.02,,,0.18,,2013-01-20 16:03:00,
2013-01-20 11:12:00,48.0,31.0,29.57,WSW,253,4.0,15.0,51,0.02,,,0.18,,2013-01-20 16:12:00,
2013-01-20 11:23:00,49.0,30.0,29.55,SW,227,2.0,13.0,48,0.01,,,0.18,,2013-01-20 16:23:00,
2013-01-20 11:33:00,49.0,30.0,29.55,SE,124,3.0,13.0,47,0.02,,,0.19,,2013-01-20 16:33:00,
2013-01-20 11:43:00,49.0,30.0,29.55,SE,124,3.0,13.0,47,0.02,,,0.19,,2013-01-20 16:43:00,
2013-01-20 11:53:00,50.0,30.0,29.54,SSE,158,4.0,15.0,46,0.01,,,0.19,,2013-01-20 16:53:00,
2013-01-20 12:03:00,51.0,30.0,29.55,SSE,165,5.0,17.0,45,0.01,,,0.19,,2013-01-20 17:03:00,
2013-01-20 12:13:00,51.0,30.0,29.55,SSE,165,5.0,17.0,45,0.01,,,0.19,,2013-01-20 17:13:00,
2013-01-20 12:22:00,50.0,30.0,29.54,ESE,115,5.0,26.0,46,0.01,,,0.18,,2013-01-20 17:22:00,
2013-01-20 12:33:00,49.0,30.0,29.54,WNW,288,4.0,17.0,47,0.00,,,0.18,,2013-01-20 17:33:00,
2013-01-20 12:42:00,49.0,30.0,29.54,WNW,288,4.0,17.0,47,0.00,,,0.18,,2013-01-20 17:42:00,
2013-01-20 12:53:00,48.0,29.0,29.55,SW,236,4.0,16.0,48,0.00,,,0.18,,2013-01-20 17:53:00,
2013-01-20 13:03:00,48.0,30.0,29.56,SSE,149,3.0,15.0,50,0.00,,,0.18,,2013-01-20 18:03:00,
2013-01-20 13:13:00,48.0,30.0,29.56,SSE,149,3.0,15.0,50,0.00,,,0.18,,2013-01-20 18:13:00,
2013-01-20 13:23:00,47.0,30.0,29.57,NNW,335,3.0,14.0,52,0.00,,,0.15,,2013-01-20 18:23:00,
2013-01-20 13:33:00,46.0,31.0,29.59,NW,316,7.0,19.0,56,0.00,,,0.15,,2013-01-20 18:33:00,
2013-01-20 13:43:00,46.0,31.0,29.59,NW,316,7.0,19.0,56,0.00,,,0.15,,2013-01-20 18:43:00,
2013-01-20 13:53:00,44.0,30.0,29.61,North,354,7.0,14.0,57,0.00,,,0.15,,2013-01-20 18:53:00,
2013-01-20 14:03:00,43.0,28.0,29.61,NW,304,6.0,15.0,55,0.00,,,0.15,,2013-01-20 19:03:00,
2013-01-20 14:12:00,43.0,28.0,29.61,NW,304,6.0,15.0,55,0.00,,,0.15,,2013-01-20 19:12:00,
2013-01-20 14:23:00,43.0,26.0,29.61,SE,124,4.0,13.0,51,0.00,,,0.11,,2013-01-20 19:23:00,
2013-01-20 14:33:00,43.0,26.0,29.61,SSE,156,4.0,11.0,51,0.00,,,0.11,,2013-01-20 19:33:00,
2013-01-20 14:43:00,43.0,26.0,29.61,SSE,156,4.0,11.0,51,0.00,,,0.11,,2013-01-20 19:43:00,
2013-01-20 14:53:00,45.0,24.0,29.62,WNW,302,6.0,14.0,44,0.00,,,0.11,,2013-01-20 19:53:00,
2013-01-20 15:03:00,44.0,23.0,29.62,SSW,197,4.0,11.0,44,0.00,,,0.11,,2013-01-20 20:03:00,
2013-01-20 15:12:00,44.0,23.0,29.62,SSW,197,4.0,11.0,44,0.00,,,0.11,,2013-01-20 20:12:00,
2013-01-20 15:23:00,45.0,20.0,29.64,SE,134,6.0,18.0,37,0.00,,,0.08,,2013-01-20 20:23:00,
2013-01-20 15:33:00,45.0,20.0,29.64,West,262,4.0,16.0,36,0.00,,,0.08,,2013-01-20 20:33:00,
2013-01-20 15:42:00,45.0,20.0,29.64,West,262,4.0,16.0,36,0.00,,,0.08,,2013-01-20 20:42:00,
2013-01-20 15:54:00,45.0,15.0,29.65,North,354,3.0,13.0,30,0.00,,,0.08,,2013-01-20 20:54:00,
2013-01-20 16:04:00,44.0,13.0,29.65,West,281,8.0,17.0,28,0.00,,,0.08,,2013-01-20 21:04:00,
2013-01-20 16:13:00,44.0,13.0,29.65,West,281,8.0,17.0,28,0.00,,,0.08,,2013-01-20 21:13:00,
2013-01-20 16:23:00,43.0,14.0,29.67,West,278,5.0,14.0,30,0.00,,,0.06,,2013-01-20 21:23:00,
2013-01-20 16:33:00,42.0,14.0,29.69,WNW,283,5.0,17.0,31,0.00,,,0.06,,2013-01-20 21:33:00,
2013-01-20 16:43:00,42.0,14.0,29.69,WNW,283,5.0,17.0,31,0.00,,,0.06,,2013-01-20 21:43:00,
2013-01-20 16:53:00,40.0,15.0,29.71,West,274,5.0,18.0,36,0.00,,,0.06,,2013-01-20 21:53:00,
2013-01-20 17:03:00,39.0,16.0,29.72,West,269,3.0,12.0,38,0.00,,,0.06,,2013-01-20 22:03:00,
2013-01-20 17:13:00,39.0,16.0,29.72,West,269,3.0,12.0,38,0.00,,,0.06,,2013-01-20 22:13:00,
2013-01-20 17:23:00,38.0,18.0,29.74,WNW,294,3.0,12.0,43,0.00,,,0.05,,2013-01-20 22:23:00,
2013-01-20 17:33:00,37.0,17.0,29.74,NW,326,5.0,12.0,44,0.00,,,0.05,,2013-01-20 22:33:00,
2013-01-20 17:43:00,37.0,17.0,29.74,NW,326,5.0,12.0,44,0.00,,,0.05,,2013-01-20 22:43:00,
2013-01-20 17:53:00,36.0,17.0,29.76,WNW,302,4.0,14.0,46,0.00,,,0.05,,2013-01-20 22:53:00,
2013-01-20 18:03:00,36.0,17.0,29.76,NW,322,4.0,16.0,45,0.00,,,0.05,,2013-01-20 23:03:00,
2013-01-20 18:13:00,36.0,17.0,29.76,NW,322,4.0,16.0,45,0.00,,,0.05,,2013-01-20 23:13:00,
2013-01-20 18:23:00,35.0,16.0,29.78,WSW,239,4.0,10.0,45,0.00,,,0.05,,2013-01-20 23:23:00,
2013-01-20 18:33:00,34.0,15.0,29.78,WNW,291,4.0,17.0,46,0.00,,,0.05,,2013-01-20 23:33:00,
2013-01-20 18:43:00,34.0,15.0,29.78,WNW,291,4.0,17.0,46,0.00,,,0.05,,2013-01-20 23:43:00,
2013-01-20 18:53:00,34.0,16.0,29.80,East,101,4.0,11.0,47,0.00,,,0.05,,2013-01-20 23:53:00,
2013-01-20 19:03:00,33.0,15.0,29.80,East,82,3.0,13.0,48,0.00,,,0.05,,2013-01-21 00:03:00,
2013-01-20 19:13:00,33.0,15.0,29.80,East,82,3.0,13.0,48,0.00,,,0.05,,2013-01-21 00:13:00,
2013-01-20 19:23:00,32.0,15.0,29.81,ENE,77,5.0,13.0,49,0.00,,,0.05,,2013-01-21 00:23:00,
2013-01-20 19:33:00,32.0,15.0,29.82,SE,146,3.0,11.0,49,0.00,,,0.05,,2013-01-21 00:33:00,
2013-01-20 19:43:00,32.0,15.0,29.82,SE,146,3.0,11.0,49,0.00,,,0.05,,2013-01-21 00:43:00,
2013-01-20 19:54:00,31.0,13.0,29.83,ESE,122,3.0,15.0,47,0.00,,,0.05,,2013-01-21 00:54:00,
2013-01-20 20:03:00,31.0,14.0,29.83,WNW,303,2.0,12.0,49,0.00,,,0.05,,2013-01-21 01:03:00,
2013-01-20 20:13:00,31.0,14.0,29.83,WNW,303,2.0,12.0,49,0.00,,,0.05,,2013-01-21 01:13:00,
2013-01-20 20:23:00,30.0,12.0,29.85,West,264,3.0,15.0,47,0.00,,,0.05,,2013-01-21 01:23:00,
2013-01-20 20:33:00,30.0,12.0,29.85,SSW,212,5.0,16.0,46,0.00,,,0.05,,2013-01-21 01:33:00,
2013-01-20 20:43:00,30.0,12.0,29.85,SSW,212,5.0,16.0,46,0.00,,,0.05,,2013-01-21 01:43:00,
2013-01-20 20:53:00,29.0,11.0,29.86,NNW,331,2.0,10.0,47,0.00,,,0.05,,2013-01-21 01:53:00,
2013-01-20 21:03:00,29.0,12.0,29.87,WNW,293,3.0,14.0,48,0.00,,,0.05,,2013-01-21 02:03:00,
2013-01-20 21:12:00,29.0,12.0,29.87,WNW,293,3.0,14.0,48,0.00,,,0.05,,2013-01-21 02:12:00,
2013-01-20 21:23:00,29.0,12.0,29.88,WNW,300,3.0,11.0,48,0.00,,,0.05,,2013-01-21 02:23:00,
2013-01-20 21:33:00,29.0,12.0,29.88,WNW,293,3.0,12.0,48,0.00,,,0.05,,2013-01-21 02:33:00,
2013-01-20 21:43:00,29.0,12.0,29.88,WNW,293,3.0,12.0,48,0.00,,,0.05,,2013-01-21 02:43:00,
2013-01-20 21:53:00,29.0,12.0,29.88,WNW,296,2.0,8.0,49,0.00,,,0.05,,2013-01-21 02:53:00,
2013-01-20 22:03:00,29.0,12.0,29.89,NNW,336,3.0,10.0,49,0.00,,,0.05,,2013-01-21 03:03:00,
2013-01-20 22:13:00,29.0,12.0,29.89,NNW,336,3.0,10.0,49,0.00,,,0.05,,2013-01-21 03:13:00,
2013-01-20 22:23:00,29.0,11.0,29.90,North,1,4.0,9.0,47,0.00,,,0.05,,2013-01-21 03:23:00,
2013-01-20 22:33:00,29.0,11.0,29.91,NE,51,3.0,8.0,46,0.00,,,0.05,,2013-01-21 03:33:00,
2013-01-20 22:43:00,29.0,11.0,29.91,NE,51,3.0,8.0,46,0.00,,,0.05,,2013-01-21 03:43:00,
2013-01-20 22:54:00,28.0,10.0,29.91,WNW,297,3.0,9.0,46,0.00,,,0.05,,2013-01-21 03:54:00,
2013-01-20 23:03:00,28.0,10.0,29.92,WNW,298,3.0,10.0,47,0.00,,,0.05,,2013-01-21 04:03:00,
2013-01-20 23:13:00,28.0,10.0,29.92,WNW,298,3.0,10.0,47,0.00,,,0.05,,2013-01-21 04:13:00,
2013-01-20 23:23:00,28.0,11.0,29.92,NNW,333,3.0,6.0,48,0.00,,,0.05,,2013-01-21 04:23:00,
2013-01-20 23:33:00,28.0,11.0,29.92,WNW,294,2.0,6.0,48,0.00,,,0.05,,2013-01-21 04:33:00,
2013-01-20 23:43:00,28.0,11.0,29.92,WNW,294,2.0,6.0,48,0.00,,,0.05,,2013-01-21 04:43:00,
2013-01-20 23:53:00,27.0,11.0,29.92,WNW,300,3.0,7.0,51,0.00,,,0.05,,2013-01-21 04:53:00,